FW9683 Weather Reports


Display with metric or nautical units.
time (UTC)temp
F
wind
direction
speed
MPH
gust
MPH
rain 1hr
in
rain 24hr
in
rain mn
in
humidity
%
barometer
mb
20260507114550 52 80 12.0 22.0 0.00 0.00 0.00 74 1019.8
20260507113050 53 83 10.0 17.0 0.00 0.00 0.00 73 1019.7
20260507111551 53 61 9.0 19.0 0.00 0.00 0.00 72 1019.7
20260507110108 54 99 9.0 21.0 0.00 0.00 0.00 71 1019.7
20260507104555 54 79 10.0 16.0 0.00 0.00 0.00 69 1019.8
20260507103057 54 80 10.0 18.0 0.00 0.00 0.00 69 1019.7
20260507101552 55 102 10.0 18.0 0.00 0.00 0.00 68 1019.7
20260507100054 55 74 13.0 22.0 0.00 0.00 0.00 67 1019.4
20260507094608 56 84 13.0 21.0 0.00 0.00 0.00 67 1019.3
20260507093059 56 101 13.0 21.0 0.00 0.00 0.00 66 1019.4
20260507091620 57 100 12.0 18.0 0.00 0.00 0.00 66 1019.2
20260507090106 58 63 9.0 18.0 0.00 0.00 0.00 68 1018.9
20260507084556 58 113 11.0 19.0 0.00 0.00 0.00 70 1018.9
20260507083053 57 87 9.0 16.0 0.00 0.00 0.00 69 1018.5
20260507081556 58 75 7.0 20.0 0.00 0.00 0.00 68 1018.3
20260507080053 59 100 12.0 20.0 0.00 0.00 0.00 67 1018.1
20260507074553 59 103 6.0 13.0 0.00 0.00 0.00 66 1018.1
20260507073054 60 104 8.0 13.0 0.00 0.00 0.00 67 1018.0
20260507071559 60 108 9.0 17.0 0.00 0.00 0.00 68 1018.0
20260507070103 61 86 9.0 14.0 0.00 0.00 0.00 69 1017.6
20260507064552 62 108 6.0 12.0 0.00 0.00 0.00 70 1017.5
20260507063053 62 127 7.0 13.0 0.00 0.00 0.00 68 1017.4
20260507061555 63 131 9.0 19.0 0.00 0.00 0.00 67 1017.2
20260507060105 63 131 13.0 21.0 0.00 0.00 0.00 66 1016.8
20260507054557 64 133 15.0 22.0 0.00 0.00 0.00 66 1016.6
20260507053100 64 135 8.0 15.0 0.00 0.00 0.00 66 1016.5
20260507051553 65 129 8.0 14.0 0.00 0.00 0.00 65 1016.8
20260507050057 66 108 6.0 17.0 0.00 0.00 0.00 64 1016.7
20260507044600 66 137 11.0 22.0 0.00 0.00 0.00 63 1016.3
20260507043053 67 146 11.0 17.0 0.00 0.00 0.00 59 1016.1
20260507041602 67 130 9.0 13.0 0.00 0.00 0.00 50 1015.7
20260507040103 68 105 9.0 15.0 0.00 0.00 0.00 48 1015.4
20260507034600 68 131 9.0 18.0 0.00 0.00 0.00 47 1015.2
20260507033056 69 121 10.0 19.0 0.00 0.00 0.00 45 1014.9
20260507031551 70 120 11.0 17.0 0.00 0.00 0.00 43 1014.7
20260507030054 71 128 12.0 20.0 0.00 0.00 0.00 41 1014.5
20260507024558 73 123 9.0 15.0 0.00 0.00 0.00 37 1014.0
20260507023056 74 115 7.0 13.0 0.00 0.00 0.00 36 1013.7
20260507021554 74 130 7.0 15.0 0.00 0.00 0.00 35 1013.4
20260507020056 75 123 9.0 15.0 0.00 0.00 0.00 34 1013.2
20260507014553 76 117 5.0 13.0 0.00 0.00 0.00 32 1013.1
20260507013052 77 153 8.0 13.0 0.00 0.00 0.00 32 1013.0
20260507011551 77 155 7.0 13.0 0.00 0.00 0.00 31 1012.8
20260507010110 78 153 10.0 18.0 0.00 0.00 0.00 31 1012.7
20260507004554 78 123 11.0 18.0 0.00 0.00 0.00 30 1012.6
20260507003053 79 192 7.0 15.0 0.00 0.00 0.00 29 1012.5
20260507001558 79 158 5.0 10.0 0.00 0.00 0.00 29 1012.4
20260507000056 79 133 4.0 11.0 0.00 0.00 0.00 29 1012.3
20260506234557 79 163 6.0 12.0 0.00 0.00 0.00 29 1012.3
20260506233100 79 138 5.0 13.0 0.00 0.00 0.00 29 1012.3
20260506231551 79 150 7.0 14.0 0.00 0.00 0.00 29 1012.2
20260506230059 79 250 5.0 14.0 0.00 0.00 0.00 29 1012.3
20260506224557 79 221 3.0 9.0 0.00 0.00 0.00 30 1012.4
20260506223102 78 235 7.0 13.0 0.00 0.00 0.00 30 1012.5
20260506221608 78 205 6.0 29.0 0.00 0.00 0.00 32 1012.4
20260506220057 77 133 4.0 16.0 0.00 0.00 0.00 34 1012.8
20260506214611 77 155 2.0 10.0 0.00 0.00 0.00 34 1012.8
20260506213059 77 75 5.0 13.0 0.00 0.00 0.00 35 1013.0
20260506211601 76 64 2.0 10.0 0.00 0.00 0.00 36 1013.4
20260506204613 74 108 7.0 18.0 0.00 0.00 0.00 37 1013.9
20260506203100 73 153 7.0 15.0 0.00 0.00 0.00 39 1014.1
20260506201600 72 126 6.0 13.0 0.00 0.00 0.00 40 1014.2
20260506200053 72 118 5.0 13.0 0.00 0.00 0.00 40 1014.3
20260506194552 71 75 4.0 15.0 0.00 0.00 0.00 42 1014.5
20260506193052 70 107 6.0 13.0 0.00 0.00 0.00 46 1014.7
20260506191553 68 108 6.0 18.0 0.00 0.00 0.00 47 1014.9
20260506190054 68 100 6.0 19.0 0.00 0.00 0.00 48 1014.9
20260506184557 66 124 7.0 14.0 0.00 0.00 0.00 50 1015.2
20260506183058 65 98 6.0 14.0 0.00 0.00 0.00 52 1015.3
20260506181553 65 84 7.0 15.0 0.00 0.00 0.00 53 1015.4
20260506174607 62 65 8.0 14.0 0.00 0.00 0.00 57 1016.0
20260506173126 61 70 9.0 14.0 0.00 0.00 0.00 58 1016.0
20260506171600 60 43 10.0 14.0 0.00 0.00 0.00 60 1016.1
20260506170055 59 90 9.0 18.0 0.00 0.00 0.00 61 1016.0
20260506164553 58 64 9.0 16.0 0.00 0.00 0.00 62 1016.2
20260506163055 57 70 10.0 16.0 0.00 0.00 0.00 64 1016.1
20260506161603 57 49 9.0 15.0 0.00 0.00 0.00 64 1016.0
20260506160054 57 56 10.0 21.0 0.00 0.00 0.00 64 1016.0
20260506154600 56 70 11.0 18.0 0.00 0.00 0.00 65 1015.9
20260506153054 56 45 11.0 18.0 0.00 0.00 0.00 65 1015.8
20260506151555 56 90 11.0 20.0 0.00 0.00 0.00 66 1015.5
20260506150101 56 61 7.0 17.0 0.00 0.00 0.00 67 1015.3
20260506144604 55 51 10.0 15.0 0.00 0.00 0.00 68 1015.3
20260506143056 55 92 8.0 18.0 0.00 0.00 0.00 69 1015.1
20260506141554 55 53 12.0 18.0 0.00 0.00 0.00 69 1015.1
20260506140106 55 27 12.0 19.0 0.00 0.00 0.00 69 1015.1
20260506134554 56 90 11.0 21.0 0.00 0.00 0.00 69 1014.7
20260506133121 56 57 8.0 20.0 0.00 0.00 0.00 69 1014.1
20260506131555 57 63 8.0 15.0 0.00 0.00 0.00 69 1013.5
20260506130136 59 69 7.0 14.0 0.00 0.00 0.00 68 1013.3
20260506124553 60 47 7.0 13.0 0.00 0.00 0.00 65 1012.9
20260506123057 62 51 5.0 10.0 0.00 0.00 0.00 63 1012.3
20260506121556 62 44 7.0 10.0 0.00 0.00 0.00 61 1012.1
20260506120104 63 61 5.0 10.0 0.00 0.00 0.00 60 1012.2